Location: *
(48.8381°N, 2.5249°E)
Time: 12:19:55
(UTC+00:00)

Daily predictions for brighter satellites

Satellite Brightness Start Highest point End
(mag) Time Altitude Azimuth Time Altitude Azimuth Time Altitude Azimuth
CZ-4 R/B 1.3 19:21:10 10° SSE 19:24:49 56° ENE 19:28:26 10° N
ATLAS 5 CENTAUR R/B 3.9 19:25:09 10° N 19:26:16 11° NNE 19:27:25 10° NE
NOSS 3-1 (C) 4.5 19:20:52 10° NW 19:27:13 47° NE 19:35:08 10° ESE
SPOT 5 2.7 19:24:00 10° SSE 19:28:31 86° WSW 19:32:54 10° NNW
NOSS 3-4 (A) 3.4 19:24:02 10° SW 19:29:20 77° NW 19:35:15 10° NE
NOSS 3-4 (C) 3.4 19:24:33 10° SW 19:29:52 78° NW 19:35:49 10° NE
Cosmos 1656 Rocket 3.7 19:25:42 10° NNW 19:31:09 65° ENE 19:36:38 10° SE
Cosmos 1025 Rocket 3.7 19:27:53 10° N 19:31:50 36° ENE 19:35:47 10° SE
Helios 1A Rocket 2.7 19:29:57 10° NNE 19:33:01 39° E 19:36:02 10° S
Cosmos 2242 Rocket 3.6 19:31:36 10° N 19:36:05 85° E 19:40:28 10° S
CZ-4B R/B 3.8 19:32:38 10° SSE 19:36:24 89° WSW 19:40:19 10° NNW
Cosmos 1733 Rocket 3.0 19:32:06 10° S 19:36:26 73° E 19:40:51 10° NNE
PAYLOAD B 4.3 19:31:09 10° SSE 19:36:33 62° ENE 19:41:59 10° N
Terra 2.1 19:33:16 10° SE 19:37:46 48° ENE 19:42:17 10° N
BREEZE-M DEB (TANK) 2.0 19:35:44 10° W 19:38:13 90° NE 19:43:20 10° E
IRAS Rocket 4.3 19:35:31 10° SSE 19:41:00 83° WSW 19:46:31 10° NNW
Gblst 52 Del rocket 4.5 19:36:10 10° SW 19:41:58 64° SSE 19:48:36 10° ENE
Resurs 01 Rocket 4.2 19:39:06 10° SW 19:42:31 22° W 19:45:56 10° NW
Cosmos 1821 Rocket 4.0 19:36:50 10° S 19:43:05 74° E 19:49:28 10° NNE
Cosmos 2237 Rocket 2.6 19:38:25 10° SW 19:44:05 72° WNW 19:49:49 10° NNE
Cosmos 1980 4.2 19:40:28 10° SW 19:46:05 65° WNW 19:51:43 10° NNE
Cosmos 2218 Rocket 4.2 19:43:00 10° SSW 19:49:07 77° W 19:55:21 10° N
CSL-04 Rocket 4.2 19:44:13 10° S 19:49:44 65° WSW 19:55:16 10° NNW
Cosmos 1346 Rocket 2.6 19:48:07 10° N 19:51:41 57° ENE 19:55:10 10° SSE
BREEZE-M DEB (TANK) 2.3 19:49:52 10° W 19:52:10 78° N 19:56:23 10° E
Meteor 2-15 Rocket 4.4 19:46:25 10° S 19:52:29 79° E 19:58:36 10° NNE
COSMOS 2455 4.3 19:47:47 10° NNW 19:52:46 26° NNE 19:57:44 10° E
SL-4 R/B 3.5 19:55:18 10° S 19:57:32 15° SE 19:57:35 15° SE
Meteor 2-16 Rocket 4.5 19:51:37 10° N 19:57:46 69° ENE 20:03:50 10° SSE
Cosmos 1400 Rocket 2.7 19:54:22 10° SSW 19:57:58 74° WNW 20:01:36 10° N
BREEZE-M DEB (TANK) 4.4 19:54:13 10° S 19:58:17 34° ESE 20:10:04 10° ENE
Cosmos 1602 3.3 19:56:40 10° N 19:58:45 30° ENE 19:59:37 22° ESE
Cosmos 1812 1.0 19:57:24 10° SSW 19:59:03 61° WNW 20:00:42 10° N
Cosmos 1943 Rocket 4.5 19:56:33 10° NW 20:00:46 22° W 20:04:57 10° SSW
Meteor 1-31 Rocket 3.6 19:57:40 10° S 20:01:03 45° W 20:04:28 10° NNW
USA 59 Rocket 1.0 19:59:57 10° WNW 20:03:11 35° SW 20:07:20 10° SSE
ASTEX 1 3.8 19:59:48 12° SSE 20:04:08 46° ENE 20:08:50 10° N
Cosmos 2297 4.0 20:00:41 10° NNW 20:06:20 54° NE 20:10:43 17° SE
Feng Yun 1-1 Rocket 4.4 20:01:38 10° S 20:07:07 73° WSW 20:12:32 10° NNW
Cosmos 1869 4.0 20:06:01 18° SE 20:07:53 28° E 20:11:00 10° NNE
Cosmos 1315 Rocket 4.2 20:08:54 17° ESE 20:09:32 17° E 20:12:04 10° NE
Cosmos 2369 Rocket 2.3 20:05:10 10° NNW 20:10:45 63° ENE 20:14:59 17° SE
ADEOS 3.6 20:06:54 10° SSE 20:12:07 90° WNW 20:17:22 10° NNW
SL-08 R/B 3.4 20:09:24 10° NNE 20:14:17 60° ESE 20:19:07 10° S
USA 186 1.7 20:14:08 30° E 20:14:32 33° ENE 20:16:43 10° N
Lacrosse 5 rocket 2.9 20:14:09 10° NW 20:16:39 20° N 20:19:07 10° ENE
RESURS DK-1 3.9 20:13:11 10° WSW 20:16:52 37° NW 20:20:35 10° NNE
Cosmos 2221 Rocket 3.5 20:14:43 10° N 20:19:09 74° E 20:22:40 16° SSE
YAOGAN 11 4.4 20:15:27 10° NNE 20:19:35 44° E 20:23:06 14° S
USA 234 3.3 20:13:29 10° ENE 20:19:55 56° SE 20:26:20 10° SW
Cosmos 2285 Rocket 4.0 20:14:16 10° S 20:20:30 61° ESE 20:26:45 10° NNE
SKYMED 3 4.2 20:18:23 10° NNE 20:22:17 86° E 20:26:12 10° SSW
Cosmos 405 Rocket 3.0 20:21:11 10° N 20:23:52 31° ENE 20:24:26 28° E
NOSS 3-1 (A) 4.4 20:20:30 10° NW 20:27:00 50° NE 20:33:20 17° ESE
Cosmos 1943 3.9 20:23:24 14° SSE 20:27:24 32° ESE 20:32:23 10° NE
Molniya-1 3.2 20:25:35 10° SSW 20:28:13 64° SE 20:33:56 10° NE
Cosmos 921 Rocket 4.3 20:24:26 10° N 20:28:16 28° ENE 20:30:06 21° E
CZ-4B R/B 3.5 20:27:35 26° ESE 20:28:36 31° ENE 20:31:37 10° N
CZ-4B R/B 3.6 20:24:15 10° S 20:29:48 64° WSW 20:35:27 10° NNW
SL-8 R/B 3.6 20:27:29 10° WSW 20:32:10 67° SSE 20:36:05 15° E
SL-08 R/B 4.5 20:26:27 10° N 20:32:42 82° E 20:37:59 15° SSE
Cosmos 1975 Rocket 3.8 20:30:10 10° N 20:34:19 37° ENE 20:35:59 27° ESE
Cosmos 1356 Rocket 4.4 20:36:34 26° ESE 20:36:57 26° E 20:40:19 10° NE
ERS-1 Rocket 4.0 20:34:54 10° S 20:39:39 43° W 20:44:26 10° NNW
Cosmos 2263 4.2 20:36:14 10° NNW 20:41:55 81° ENE 20:45:14 26° SSE
Cosmos 2292 Rocket 4.3 20:40:13 10° NNW 20:44:17 42° W 20:47:05 13° SSW
CZ-2C R/B 3.3 20:44:39 26° ENE 20:44:39 26° ENE 20:46:59 10° N
Okean-O 2.7 20:44:32 22° S 20:47:18 75° WSW 20:51:42 10° NNW
Cosmos 2298 Rocket 4.0 20:44:06 10° SSW 20:49:24 85° WNW 20:54:46 10° NNE
Cosmos 1908 Rocket 3.9 20:46:29 10° SSW 20:50:46 64° WNW 20:55:04 10° N
Cosmos 44 3.8 20:45:43 10° SW 20:50:48 68° NW 20:56:09 10° NE
Okean O Rocket 2.0 20:53:05 22° S 20:55:48 59° WSW 21:00:04 10° NNW
CZ-4B R/B 3.4 20:55:25 34° SE 20:57:23 64° ENE 21:02:06 10° N
CZ-4 R/B 4.0 20:57:26 10° WSW 20:59:11 13° W 21:00:56 10° WNW
Ariane Rocket 3.1 20:57:14 34° SE 20:59:17 59° ENE 21:04:15 10° N
SL-16 R/B 2.6 20:54:33 10° SW 21:00:10 65° WNW 21:05:50 10° NNE
Geosat 4.0 20:55:43 10° NNE 21:00:45 87° WNW 21:05:45 10° SSW
Cosmos 1782 Rocket 3.4 20:58:38 27° S 21:00:56 84° E 21:05:16 10° N
Cosmos 1934 Rocket 4.1 20:55:41 10° SSW 21:01:57 80° W 21:08:10 10° N
Spot 2 Rocket 4.1 21:03:19 18° S 21:06:48 50° W 21:11:42 10° NNW
USA 245 4.0 21:05:18 33° S 21:07:37 85° WSW 21:13:13 10° NNW
Cosmos 1269 Rocket 3.9 21:02:54 10° NNW 21:08:13 85° ENE 21:10:20 38° SSE
ATLAS 5 CENTAUR R/B 2.7 21:05:45 10° NNW 21:09:20 33° NE 21:11:03 25° E
Cosmos 1140 Rocket 3.4 21:05:37 10° NNW 21:10:47 85° WSW 21:12:46 38° SSE
Terra 3.9 21:11:51 10° SW 21:15:32 23° W 21:19:14 10° NW
NOSS 3-1 (C) 4.3 21:11:23 10° NW 21:18:23 63° SW 21:23:02 29° SSE
Cosmos 1862 2.8 21:19:13 10° N 21:22:50 89° W 21:22:56 84° S
Cosmos 1447 Rocket 4.4 21:18:55 10° N 21:25:12 78° E 21:27:41 39° SSE
Cosmos 2058 2.6 21:23:16 10° N 21:27:13 90° W 21:27:31 75° S
Cosmos 407 Rocket 3.5 21:22:37 10° NNW 21:27:44 68° ENE 21:28:57 49° SE
Cosmos 1174 4.2 21:27:52 10° NW 21:30:21 40° W 21:30:21 40° W
Cosmos 371 Rocket 3.4 21:27:38 10° NNW 21:32:25 60° ENE 21:33:16 51° ESE
SL-4 R/B 4.1 21:30:31 10° SW 21:31:15 15° SW 21:31:15 15° SW
ATLAS 2AS CENTAUR R/B 4.3 21:38:07 16° E 21:38:07 16° E 21:40:26 10° ENE
COSMOS 2455 2.8 21:33:26 10° NW 21:39:30 89° NE 21:41:17 49° SE
SJ 16-02 1.7 21:36:17 10° NNW 21:40:26 47° ENE 21:40:32 47° ENE
Cosmos 2251 Rocket 4.0 21:37:11 10° NNW 21:42:21 47° ENE 21:43:27 41° E
Cosmos 1315 Rocket 3.9 21:43:33 29° WSW 21:44:47 39° WNW 21:48:20 10° N
Cosmos 1536 Rocket 3.9 21:41:26 10° N 21:45:30 51° ENE 21:45:30 51° ENE
Gbstr 26 Del rocket 4.0 21:45:32 10° WSW 21:48:40 37° SW 21:48:40 37° SW
SPOT 3 Rocket 4.4 21:48:49 30° SW 21:50:48 42° W 21:55:44 10° NNW
Cosmos 1605 Rocket 4.4 21:47:33 22° SSW 21:51:34 60° WNW 21:57:40 10° N
Lacrosse 5 rocket 2.2 21:50:38 10° NW 21:52:48 36° NNW 21:52:48 36° NNW
Cosmos 2369 Rocket 3.9 21:49:56 10° NW 21:54:16 23° WSW 21:56:46 17° SW
SeaSat 1 3.4 21:56:42 33° ENE 21:57:45 36° NE 22:02:14 10° NNW
USA 234 3.6 21:56:34 10° NE 22:03:02 64° NNW 22:09:30 10° WSW
Cosmos 1697 Rocket 4.1 21:58:37 10° NNW 22:03:30 29° NE 22:05:25 24° E
Cosmos 2173 Rocket 3.9 22:03:21 56° SE 22:04:24 67° E 22:10:28 10° NNE
Cosmos 921 Rocket 4.1 22:02:23 10° NW 22:06:23 35° W 22:06:41 35° WSW
Helios 1B rocket 3.4 22:09:10 36° NNE 22:09:10 36° NNE 22:11:30 10° N
Cosmos 1603 3.6 22:07:59 57° SSW 22:09:13 86° ESE 22:14:58 10° NNE
Cosmos 1943 4.0 22:05:43 10° SW 22:11:13 49° NW 22:16:44 10° NNE
Meteor 2-3 Rocket 3.5 22:07:47 10° N 22:13:25 78° ENE 22:14:03 69° SE
SL-8 R/B 3.7 22:09:41 10° W 22:13:49 68° W 22:13:49 68° W
Cosmos 2151 Rocket 3.7 22:17:04 71° N 22:17:04 71° N 22:21:01 10° N
Okean 1 Rocket 3.6 22:17:47 49° NE 22:17:47 49° NE 22:21:10 10° NNE
NOSS 3-1 (A) 4.3 22:11:08 10° NW 22:18:11 59° WSW 22:20:42 44° S
Helios 1A 3.6 22:19:05 10° NNE 22:22:03 49° NNE 22:22:03 49° NNE
Okean 2 Rocket 3.4 22:24:30 63° NNE 22:24:30 63° NNE 22:28:18 10° N
Cosmos 1980 Rocket 4.1 22:19:29 10° N 22:23:55 22° NE 22:26:39 16° ENE
Cosmos 304 Rocket 4.5 22:21:00 10° NW 22:25:28 43° WSW 22:25:28 43° WSW
Cosmos 968 Rocket 4.3 22:21:51 10° NNW 22:26:46 39° ENE 22:27:16 39° ENE
Cosmos 1190 Rocket 3.8 22:22:01 10° NNW 22:27:20 86° WSW 22:27:28 84° SSW
Cosmos 1455 Rocket 4.3 22:28:48 33° NE 22:28:48 33° NE 22:31:44 10° NNE
Cosmos 2100 Rocket 3.9 22:26:44 58° SSW 22:28:03 83° W 22:34:18 10° N
Tsikada Rocket 4.2 22:25:13 10° N 22:31:23 54° ENE 22:32:10 51° ESE
Cosmos 2061 Rocket 4.4 22:35:46 45° E 22:35:58 45° E 22:41:48 10° NNE
Cosmos 972 Rocket 4.4 22:35:51 66° SE 22:36:23 69° ESE 22:43:09 10° NNE
Meteor 1-27 4.5 22:40:55 54° E 22:40:55 54° E 22:46:18 10° NNE
Cosmos 2360 4.1 22:36:11 10° NNW 22:41:54 79° WSW 22:42:06 77° SW
Cosmos 1656 3.7 22:38:57 10° NNW 22:44:20 66° WSW 22:44:20 66° WSW
Cosmos 332 Rocket 4.0 22:45:53 10° NNW 22:50:07 68° N 22:50:07 68° N
ATLAS 5 CENTAUR R/B 2.8 22:47:26 10° NW 22:50:11 35° W 22:50:11 35° W
ATLAS 3B R/B 3.6 22:43:55 10° NW 22:51:33 51° NE 22:55:41 26° E
Cosmos 1864 Rocket 4.5 22:52:25 63° SW 22:53:25 78° W 22:59:49 10° N
Cosmos 1420 Rocket 4.4 22:54:22 54° W 22:55:01 58° WNW 23:00:16 10° NNE
Cosmos 1954 Rocket 4.3 22:52:31 10° NNW 22:57:15 57° W 22:57:15 57° W
Aureole 3 Rocket 4.1 22:58:44 48° ENE 22:58:44 48° ENE 23:04:29 10° NNE
Cosmos 1833 Rocket 3.1 23:01:17 49° ENE 23:01:17 49° ENE 23:05:50 10° NE
Cosmos 676 Rocket 4.1 22:56:05 10° NNW 23:00:56 69° WNW 23:00:56 69° WNW
Cosmos 2082 Rocket 4.4 23:02:51 12° E 23:02:51 12° E 23:04:02 10° ENE
ALOS 2 3.3 23:03:31 52° N 23:03:31 52° N 23:06:57 10° N
Sich 1 Rocket 4.4 23:03:46 46° NW 23:03:46 46° NW 23:07:24 10° N
BREEZE-M R/B 4.4 22:54:14 10° W 23:03:42 81° N 23:09:22 10° ENE
SL-08 R/B 4.3 23:03:24 77° SSW 23:03:55 88° W 23:10:13 10° N
Cosmos 1818 4.1 22:59:18 10° NW 23:03:51 47° W 23:03:51 47° W
Spot 4 4.1 23:08:14 64° NNW 23:08:14 64° NNW 23:12:17 10° NNW
ARIANE 5 R/B 3.3 23:10:04 50° NNW 23:10:04 50° NNW 23:13:22 10° NNW
Meteor 2-12 Rocket 4.3 23:03:40 10° NNW 23:09:44 80° W 23:10:02 77° SW
Cosmos 1725 Rocket 4.1 23:08:51 58° WSW 23:09:51 66° WNW 23:16:09 10° N
CZ-2C R/B 4.2 23:05:14 10° NNE 23:09:16 32° ENE 23:09:16 32° ENE
DEBRIS 4.1 23:14:40 49° WSW 23:16:12 88° SSE 23:31:55 10° E
Cosmos 2228 4.1 23:18:31 40° NNE 23:18:31 40° NNE 23:21:14 10° N
ARIANE 6 FM1 Upper Stage 4.2 23:13:49 10° NW 23:16:01 31° NW 23:16:01 31° NW
USA 229 DEB 4.0 23:10:32 10° NW 23:17:59 77° NE 23:20:33 47° ESE
USA 229 4.0 23:10:36 10° NW 23:18:02 76° NE 23:20:40 47° ESE
SJ 16-02 3.5 23:15:07 10° NW 23:17:02 17° WNW 23:17:02 17° WNW
Cosmos 2233 Rocket 3.9 23:18:32 73° SW 23:19:05 80° W 23:25:23 10° N
Cosmos 1850 Rocket 4.2 23:15:19 10° NNW 23:20:06 65° NE 23:20:06 65° NE
Cosmos 2056 Rocket 3.8 23:20:45 62° WNW 23:20:55 63° WNW 23:26:19 10° NNE
ATLAS 2AS CENTAUR R/B 2.5 23:25:29 73° SSE 23:25:59 77° SE 23:32:49 10° NE
Cosmos 1331 Rocket 4.5 23:27:28 53° ENE 23:27:28 53° ENE 23:31:42 10° NNE
Cosmos 1624 Rocket 4.4 23:28:33 55° WNW 23:28:36 55° WNW 23:33:42 10° NNE
CZ-2C R/B 3.2 23:29:07 50° ENE 23:29:21 50° ENE 23:34:35 10° N
Cosmos 292 Rocket 4.4 23:25:59 10° NNW 23:29:43 53° NW 23:29:43 53° NW
SeaSat 1 3.5 23:36:18 35° WNW 23:36:18 35° WNW 23:39:43 10° NW
Nadezhda 4 Rocket 4.3 23:36:27 10° N 23:42:28 53° ENE 23:43:04 51° E
Cosmos 1110 Rocket 4.2 23:44:35 70° NNE 23:44:35 70° NNE 23:49:17 10° NNE
ACS3 Solar Sail 3.4 23:39:37 10° NE 23:44:04 21° E 23:44:46 20° E
Meteor 1-25 Rocket 4.5 23:38:55 10° N 23:44:41 59° ENE 23:44:52 59° E
USA 234 4.3 23:39:23 10° ENE 23:45:31 44° N 23:51:38 10° WNW
Cosmos 1697 Rocket 3.0 23:42:17 10° NW 23:47:06 55° WNW 23:47:06 55° WNW
Cosmos 2151 4.2 23:49:59 10° N 23:52:40 39° N 23:52:40 39° N
